GW6112 Weather Reports


time (UTC)temp
F
wind
direction
speed
knots
gust
knots
rain 1hr
in
rain 24hr
in
rain mn
in
humidity
%
barometer
mb
20260906225455 74 9 2.6 5.2 0.00 0.00 0.00 44 1027.8
20260906224951 74 94 5.2 6.1 0.00 0.00 0.00 44 1027.7
20260906224447 74 57 5.2 6.1 0.00 0.00 0.00 44 1027.8
20260906223943 74 77 2.6 5.2 0.00 0.00 0.00 43 1027.8
20260906223439 74 137 2.6 7.8 0.00 0.00 0.00 44 1027.8
20260906222937 75 45 2.6 7.0 0.00 0.00 0.00 42 1027.9
20260906222437 77 107 6.1 9.6 0.00 0.00 0.00 41 1028.0
20260906221935 74 45 2.6 7.8 0.00 0.00 0.00 44 1027.8
20260906221434 75 79 4.3 6.1 0.00 0.00 0.00 43 1027.9
20260906220930 74 53 4.3 5.2 0.00 0.00 0.00 44 1027.8
20260906220425 75 105 2.6 7.0 0.00 0.00 0.00 43 1028.0
20260906215925 74 55 0.9 7.8 0.00 0.00 0.00 45 1027.8
20260906215425 75 112 7.0 9.6 0.00 0.00 0.00 41 1027.9
20260906214923 76 102 5.2 9.6 0.00 0.00 0.00 41 1027.9
20260906214422 75 115 3.5 7.0 0.00 0.00 0.00 42 1028.2
20260906213922 74 95 7.8 8.7 0.00 0.00 0.00 43 1028.3
20260906213416 75 103 6.1 7.0 0.00 0.00 0.00 41 1028.4
20260906212914 74 43 3.5 7.8 0.00 0.00 0.00 43 1028.6
20260906212409 72 143 4.3 5.2 0.00 0.00 0.00 45 1028.2
20260906211909 72 69 3.5 11.3 0.00 0.00 0.00 45 1028.2
20260906211405 71 51 2.6 7.8 0.00 0.00 0.00 44 1028.2
20260906210905 72 107 2.6 4.3 0.00 0.00 0.00 43 1028.0
20260906210401 73 59 2.6 7.8 0.00 0.00 0.00 42 1028.3
20260906205855 72 114 3.5 5.2 0.00 0.00 0.00 43 1028.4
20260906205351 72 144 4.3 7.8 0.00 0.00 0.00 44 1028.6
20260906204847 71 48 3.5 6.1 0.00 0.00 0.00 44 1028.6
20260906204346 73 100 3.5 9.6 0.00 0.00 0.00 44 1028.8
20260906203845 75 315 1.7 7.8 0.00 0.00 0.00 39 1028.7
20260906203341 75 135 6.1 11.3 0.00 0.00 0.00 42 1028.6
20260906202838 72 118 6.1 7.8 0.00 0.00 0.00 44 1028.7
20260906202337 72 133 5.2 8.7 0.00 0.00 0.00 45 1029.0
20260906201837 71 85 3.5 5.2 0.00 0.00 0.00 45 1029.0
20260906201332 72 86 4.3 6.1 0.00 0.00 0.00 45 1029.0
20260906200827 72 108 2.6 5.2 0.00 0.00 0.00 44 1029.0
20260906200323 73 77 1.7 7.0 0.00 0.00 0.00 42 1028.7
20260906195818 74 107 7.0 13.0 0.00 0.00 0.00 40 1028.8
20260906195315 73 96 6.1 9.6 0.00 0.00 0.00 41 1028.7
20260906194811 74 46 9.6 10.4 0.00 0.00 0.00 41 1028.8
20260906194306 74 56 5.2 8.7 0.00 0.00 0.00 43 1028.7
20260906193801 74 112 4.3 11.3 0.00 0.00 0.00 42 1029.1
20260906193255 72 357 2.6 11.3 0.00 0.00 0.00 44 1029.1
20260906192752 72 26 7.8 10.4 0.00 0.00 0.00 44 1029.0
20260906192251 73 35 2.6 10.4 0.00 0.00 0.00 44 1029.0
20260906191751 74 88 3.5 12.2 0.00 0.00 0.00 40 1029.1
20260906191246 76 58 7.8 8.7 0.00 0.00 0.00 40 1029.1
20260906190746 75 132 7.0 9.6 0.00 0.00 0.00 41 1029.2
20260906190240 76 79 7.8 12.2 0.00 0.00 0.00 40 1029.1
20260906185739 76 93 3.5 12.2 0.00 0.00 0.00 40 1029.0
20260906185238 75 179 1.7 14.8 0.00 0.00 0.00 39 1029.2
20260906184733 73 120 4.3 11.3 0.00 0.00 0.00 41 1029.1
20260906184228 75 75 4.3 7.0 0.00 0.00 0.00 39 1029.2
20260906183724 77 56 7.8 14.8 0.00 0.00 0.00 38 1029.2
20260906183220 77 132 5.2 7.0 0.00 0.00 0.00 35 1029.4
20260906182720 76 137 8.7 9.6 0.00 0.00 0.00 36 1029.4
20260906182216 75 23 3.5 8.7 0.00 0.00 0.00 37 1029.5
20260906181711 76 34 10.4 13.0 0.00 0.00 0.00 36 1029.6
20260906181208 74 121 4.3 11.3 0.00 0.00 0.00 38 1029.7
20260906180707 74 128 7.0 9.6 0.00 0.00 0.00 37 1029.9
20260906180203 74 110 7.0 11.3 0.00 0.00 0.00 38 1029.7
20260906175700 74 94 7.0 10.4 0.00 0.00 0.00 38 1029.7
20260906175156 75 95 3.5 13.0 0.00 0.00 0.00 36 1030.1
20260906174654 74 61 5.2 14.8 0.00 0.00 0.00 37 1030.1
20260906174149 74 139 7.8 9.6 0.00 0.00 0.00 37 1030.0
20260906173644 75 110 5.2 10.4 0.00 0.00 0.00 36 1030.1
20260906173140 76 146 8.7 11.3 0.00 0.00 0.00 35 1030.4
20260906172639 74 84 3.5 5.2 0.00 0.00 0.00 38 1030.4
20260906172135 74 129 8.7 13.9 0.00 0.00 0.00 38 1030.4
20260906171634 73 93 4.3 9.6 0.00 0.00 0.00 40 1030.3
20260906171130 73 45 3.5 8.7 0.00 0.00 0.00 40 1030.8
20260906170626 73 59 3.5 11.3 0.00 0.00 0.00 39 1030.7
20260906170125 73 116 3.5 10.4 0.00 0.00 0.00 38 1030.4
20260906165622 74 158 4.3 5.2 0.00 0.00 0.00 37 1030.7
20260906165117 74 122 5.2 10.4 0.00 0.00 0.00 37 1030.5
20260906164615 75 96 4.3 6.1 0.00 0.00 0.00 37 1030.5
20260906164112 74 109 1.7 9.6 0.00 0.00 0.00 38 1030.7
20260906163607 72 114 6.1 12.2 0.00 0.00 0.00 40 1030.9
20260906163103 74 42 3.5 7.8 0.00 0.00 0.00 38 1030.8
20260906162600 72 23 0.9 6.1 0.00 0.00 0.00 39 1030.8
20260906162055 72 142 3.5 7.8 0.00 0.00 0.00 39 1031.1
20260906161550 72 228 1.7 9.6 0.00 0.00 0.00 39 1030.9
20260906161048 72 117 5.2 6.1 0.00 0.00 0.00 40 1030.7
20260906160547 71 149 3.5 7.8 0.00 0.00 0.00 41 1030.8
20260906160046 70 121 3.5 10.4 0.00 0.00 0.00 41 1030.7
20260906155544 71 124 5.2 6.1 0.00 0.00 0.00 41 1030.4
20260906155040 71 154 6.1 7.8 0.00 0.00 0.00 41 1030.7
20260906154535 71 13 1.7 3.5 0.00 0.00 0.00 41 1030.7
20260906154034 71 136 4.3 7.8 0.00 0.00 0.00 41 1030.7
20260906153533 69 141 1.7 5.2 0.00 0.00 0.00 44 1030.7
20260906153029 71 88 5.2 7.0 0.00 0.00 0.00 42 1030.8
20260906152528 72 78 2.6 6.1 0.00 0.00 0.00 39 1030.9
20260906152027 71 40 1.7 3.5 0.00 0.00 0.00 39 1030.7
20260906151523 71 92 1.7 3.5 0.00 0.00 0.00 39 1030.5
20260906151024 70 310 2.6 5.2 0.00 0.00 0.00 39 1030.5
20260906150519 70 28 3.5 4.3 0.00 0.00 0.00 39 1030.7
20260906150014 70 4 2.6 3.5 0.00 0.00 0.00 40 1031.1
20260906145513 69 76 1.7 3.5 0.00 0.00 0.00 40 1030.8
20260906145008 70 78 3.5 5.2 0.00 0.00 0.00 39 1030.7
20260906144502 70 347 3.5 5.2 0.00 0.00 0.00 39 1030.7
20260906143958 69 54 1.7 4.3 0.00 0.00 0.00 40 1030.7
20260906143453 69 80 2.6 4.3 0.00 0.00 0.00 40 1030.8
20260906142949 68 338 4.3 5.2 0.00 0.00 0.00 40 1030.5
20260906142443 68 1 5.2 5.2 0.00 0.00 0.00 41 1030.5
20260906141938 68 343 3.5 5.2 0.00 0.00 0.00 40 1030.5
20260906141438 67 345 3.5 4.3 0.00 0.00 0.00 42 1030.7
20260906140938 68 9 2.6 4.3 0.00 0.00 0.00 41 1030.5
20260906140432 70 131 1.7 2.6 0.00 0.00 0.00 38 1030.3
20260906135930 69 44 0.0 1.7 0.00 0.00 0.00 40 1030.4
20260906135429 68 355 2.6 2.6 0.00 0.00 0.00 40 1030.3
20260906134926 67 51 2.6 3.5 0.00 0.00 0.00 42 1030.4
20260906134420 68 353 2.6 2.6 0.00 0.00 0.00 40 1030.3
20260906133915 68 1 1.7 3.5 0.00 0.00 0.00 40 1030.4
20260906133411 68 13 2.6 2.6 0.00 0.00 0.00 40 1030.3
20260906132906 68 0 1.7 2.6 0.00 0.00 0.00 39 1030.3
20260906132402 70 16 0.0 0.9 0.00 0.00 0.00 37 1030.1
20260906131857 68 126 0.0 0.9 0.00 0.00 0.00 39 1030.1
20260906131353 67 166 0.0 0.9 0.00 0.00 0.00 40 1030.1
20260906130848 65 240 0.0 1.7 0.00 0.00 0.00 43 1029.9
20260906130348 64 341 0.0 0.9 0.00 0.00 0.00 44 1030.0
20260906125847 62 319 0.9 1.7 0.00 0.00 0.00 46 1029.7
20260906125344 61 288 1.7 2.6 0.00 0.00 0.00 48 1030.0
20260906124839 61 286 1.7 3.5 0.00 0.00 0.00 48 1029.6
20260906124335 62 240 3.5 3.5 0.00 0.00 0.00 47 1029.7
20260906123834 61 257 1.7 2.6 0.00 0.00 0.00 47 1029.7
20260906123329 61 335 0.9 0.9 0.00 0.00 0.00 47 1029.7
20260906122829 62 241 0.9 1.7 0.00 0.00 0.00 46 1029.7
20260906122324 62 286 0.0 1.7 0.00 0.00 0.00 45 1029.7
20260906121821 62 299 2.6 2.6 0.00 0.00 0.00 46 1029.7
20260906121316 61 279 2.6 3.5 0.00 0.00 0.00 47 1029.9
20260906120813 61 297 1.7 2.6 0.00 0.00 0.00 47 1030.1
20260906120308 61 280 1.7 2.6 0.00 0.00 0.00 47 1030.0
20260906115804 62 272 1.7 3.5 0.00 0.00 0.00 46 1029.9
20260906115259 62 294 1.7 2.6 0.00 0.00 0.00 46 1029.7
20260906114758 62 305 1.7 2.6 0.00 0.00 0.00 45 1029.9
20260906114254 62 296 1.7 2.6 0.00 0.00 0.00 45 1030.0
20260906113749 62 309 2.6 2.6 0.00 0.00 0.00 46 1030.0
20260906113248 62 304 0.0 1.7 0.00 0.00 0.00 47 1029.9
20260906112748 62 147 0.0 1.7 0.00 0.00 0.00 46 1029.7
20260906112245 62 322 0.0 0.9 0.00 0.00 0.00 46 1029.7
20260906111744 62 61 0.0 1.7 0.00 0.00 0.00 47 1029.7
20260906111239 61 282 0.0 1.7 0.00 0.00 0.00 47 1029.6
20260906110734 61 263 0.9 0.9 0.00 0.00 0.00 47 1030.0
20260906110230 62 285 0.9 1.7 0.00 0.00 0.00 46 1029.6
20260906105728 63 287 1.7 3.5 0.00 0.00 0.00 45 1029.6
20260906105225 63 295 1.7 2.6 0.00 0.00 0.00 45 1029.6
20260906104725 63 311 1.7 2.6 0.00 0.00 0.00 45 1029.6
20260906104224 63 285 1.7 1.7 0.00 0.00 0.00 45 1030.0
20260906103721 62 309 1.7 1.7 0.00 0.00 0.00 46 1029.7
20260906103216 63 287 1.7 2.6 0.00 0.00 0.00 45 1029.7
20260906102712 62 295 1.7 2.6 0.00 0.00 0.00 46 1029.7
20260906102212 62 309 1.7 3.5 0.00 0.00 0.00 46 1029.7
20260906101712 62 328 0.9 1.7 0.00 0.00 0.00 47 1029.9
20260906101207 61 284 0.0 1.7 0.00 0.00 0.00 47 1030.0
20260906100702 62 268 1.7 3.5 0.00 0.00 0.00 47 1029.6
20260906100202 62 285 4.3 4.3 0.00 0.00 0.00 47 1029.9
20260906095657 62 320 1.7 3.5 0.00 0.00 0.00 46 1029.9
20260906095152 63 340 2.6 3.5 0.00 0.00 0.00 46 1030.0
20260906094651 63 31 2.6 3.5 0.00 0.00 0.00 46 1029.7
20260906094147 62 345 0.9 1.7 0.00 0.00 0.00 46 1030.0
20260906093643 64 215 0.0 3.5 0.00 0.00 0.00 44 1030.0
20260906093143 65 265 1.7 2.6 0.00 0.00 0.00 42 1030.0
20260906092638 66 158 1.7 3.5 0.00 0.00 0.00 41 1030.1
20260906092133 66 238 4.3 6.1 0.00 0.00 0.00 42 1030.0
20260906091629 65 208 5.2 5.2 0.00 0.00 0.00 42 1030.0
20260906091125 65 235 5.2 7.0 0.00 0.00 0.00 43 1029.9
20260906090620 65 232 5.2 6.1 0.00 0.00 0.00 43 1029.9
20260906090115 65 242 5.2 8.7 0.00 0.00 0.00 43 1029.9
20260906085614 65 251 3.5 6.1 0.00 0.00 0.00 44 1029.7
20260906085113 65 247 5.2 7.0 0.00 0.00 0.00 44 1029.9
20260906084608 65 239 7.8 9.6 0.00 0.00 0.00 44 1029.6
20260906084107 65 236 6.1 7.8 0.00 0.00 0.00 43 1029.9
20260906083604 65 228 5.2 9.6 0.00 0.00 0.00 43 1029.9
20260906083103 65 246 6.1 7.8 0.00 0.00 0.00 43 1029.9
20260906082558 65 237 7.0 7.8 0.00 0.00 0.00 42 1029.7
20260906082054 65 273 3.5 9.6 0.00 0.00 0.00 42 1029.9
20260906081549 65 231 7.0 7.8 0.00 0.00 0.00 42 1030.0
20260906081044 65 231 4.3 7.0 0.00 0.00 0.00 42 1030.0
20260906080541 65 253 5.2 6.1 0.00 0.00 0.00 41 1030.1
20260906080037 65 231 4.3 5.2 0.00 0.00 0.00 41 1030.0
20260906075537 65 222 6.1 7.0 0.00 0.00 0.00 41 1030.0
20260906075031 65 256 2.6 6.1 0.00 0.00 0.00 41 1030.3
20260906074526 65 247 4.3 6.1 0.00 0.00 0.00 42 1030.3
20260906074025 65 244 6.1 6.1 0.00 0.00 0.00 42 1030.0
20260906073520 65 238 5.2 6.1 0.00 0.00 0.00 42 1030.1
20260906073016 64 250 5.2 5.2 0.00 0.00 0.00 42 1030.0
20260906072511 65 274 3.5 5.2 0.00 0.00 0.00 43 1030.1
20260906072007 65 242 2.6 7.0 0.00 0.00 0.00 43 1030.4
20260906071503 64 223 4.3 7.0 0.00 0.00 0.00 43 1030.3
20260906070958 64 257 3.5 5.2 0.00 0.00 0.00 44 1030.4
20260906070454 64 261 2.6 5.2 0.00 0.00 0.00 44 1030.4
20260906065950 64 265 3.5 5.2 0.00 0.00 0.00 45 1030.4
20260906065449 64 259 5.2 5.2 0.00 0.00 0.00 45 1030.5
20260906064945 64 259 3.5 5.2 0.00 0.00 0.00 45 1030.4
20260906064442 63 243 2.6 4.3 0.00 0.00 0.00 46 1030.5
20260906063942 63 254 3.5 5.2 0.00 0.00 0.00 47 1030.5
20260906063437 62 273 5.2 6.1 0.00 0.00 0.00 48 1030.4
20260906062937 62 259 6.1 7.8 0.00 0.00 0.00 49 1030.5
20260906062432 62 275 7.0 9.6 0.00 0.00 0.00 50 1030.7
20260906061927 62 283 7.0 8.7 0.00 0.00 0.00 50 1030.8
20260906061423 60 292 5.2 6.1 0.00 0.00 0.00 52 1030.7
20260906060918 59 287 4.3 4.3 0.00 0.00 0.00 55 1030.5
20260906060415 59 311 1.7 2.6 0.00 0.00 0.00 55 1030.7
20260906055911 60 296 3.5 3.5 0.00 0.00 0.00 54 1030.8
20260906055407 60 296 2.6 4.3 0.00 0.00 0.00 54 1030.8
20260906054902 60 285 3.5 5.2 0.00 0.00 0.00 55 1030.7
20260906054356 59 303 2.6 3.5 0.00 0.00 0.00 56 1030.9
20260906053853 59 299 2.6 3.5 0.00 0.00 0.00 55 1031.1
20260906053348 60 301 2.6 3.5 0.00 0.00 0.00 55 1031.1
20260906052844 60 298 1.7 1.7 0.00 0.00 0.00 54 1031.2
20260906052340 60 329 1.7 2.6 0.00 0.00 0.00 54 1031.4
20260906051837 60 295 1.7 3.5 0.00 0.00 0.00 56 1031.3
20260906051336 60 299 1.7 2.6 0.00 0.00 0.00 58 1031.3
20260906050832 61 8 3.5 4.3 0.00 0.00 0.00 57 1031.3
20260906050327 62 11 4.3 4.3 0.00 0.00 0.00 56 1031.6
20260906045826 61 279 3.5 4.3 0.00 0.00 0.00 55 1031.3
20260906045320 61 188 4.3 7.0 0.00 0.00 0.00 58 1031.3
20260906044817 61 153 3.5 7.0 0.00 0.00 0.00 58 1031.3
20260906044316 63 190 5.2 5.2 0.00 0.00 0.00 51 1031.4
20260906043812 62 267 6.1 7.8 0.00 0.00 0.00 54 1031.2
20260906043309 62 255 5.2 15.6 0.00 0.00 0.00 54 1031.1
20260906042808 63 187 6.1 9.6 0.00 0.00 0.00 52 1031.1
20260906042307 62 185 6.1 15.6 0.00 0.00 0.00 53 1030.8
20260906041803 62 187 16.5 19.1 0.00 0.00 0.00 54 1031.1
20260906041258 63 257 8.7 11.3 0.00 0.00 0.00 49 1030.9
20260906040754 63 290 9.6 13.9 0.00 0.00 0.00 50 1030.8
20260906040249 64 303 9.6 13.0 0.00 0.00 0.00 49 1030.5
20260906035744 65 307 4.3 13.0 0.00 0.00 0.00 46 1030.4
20260906035240 64 286 10.4 14.8 0.00 0.00 0.00 46 1030.7
20260906034739 64 291 12.2 16.5 0.00 0.00 0.00 48 1030.5
20260906034234 64 299 5.2 20.9 0.00 0.00 0.00 48 1030.3
20260906033730 66 307 9.6 20.0 0.00 0.00 0.00 44 1030.4
20260906033229 66 311 14.8 18.2 0.00 0.00 0.00 42 1030.4
20260906032727 67 331 7.8 12.2 0.00 0.00 0.00 41 1030.5
20260906032226 67 284 12.2 13.0 0.00 0.00 0.00 40 1030.5
20260906031721 67 324 9.6 10.4 0.00 0.00 0.00 39 1030.7
20260906031217 67 271 4.3 9.6 0.00 0.00 0.00 38 1030.5
20260906030717 67 284 8.7 9.6 0.00 0.00 0.00 38 1030.4
20260906030212 67 310 2.6 2.6 0.00 0.00 0.00 38 1030.3
20260906025711 67 285 4.3 6.1 0.00 0.00 0.00 38 1030.1
20260906025206 67 306 4.3 8.7 0.00 0.00 0.00 39 1030.0
20260906024700 67 300 3.5 8.7 0.00 0.00 0.00 40 1030.3
20260906024159 66 295 8.7 9.6 0.00 0.00 0.00 40 1029.9
20260906023655 66 295 6.1 12.2 0.00 0.00 0.00 41 1030.0
20260906023155 66 315 6.1 8.7 0.00 0.00 0.00 42 1030.0
20260906022650 66 331 4.3 8.7 0.00 0.00 0.00 42 1029.9
20260906022146 65 316 6.1 8.7 0.00 0.00 0.00 42 1029.7
20260906021641 65 297 8.7 11.3 0.00 0.00 0.00 43 1029.7
20260906021140 65 310 3.5 8.7 0.00 0.00 0.00 42 1029.4
20260906020635 66 314 6.1 7.8 0.00 0.00 0.00 42 1029.4
20260906020130 65 303 4.3 6.1 0.00 0.00 0.00 42 1029.5
20260906015630 66 308 5.2 8.7 0.00 0.00 0.00 43 1029.6
20260906015129 66 336 5.2 9.6 0.00 0.00 0.00 43 1029.5
20260906014628 66 320 4.3 7.0 0.00 0.00 0.00 42 1029.5
20260906014125 66 315 5.2 9.6 0.00 0.00 0.00 40 1029.5
20260906013620 67 331 5.2 8.7 0.00 0.00 0.00 40 1029.7
20260906013116 67 309 5.2 10.4 0.00 0.00 0.00 40 1029.6
20260906012610 67 325 5.2 8.7 0.00 0.00 0.00 40 1029.7
20260906012110 68 341 8.7 9.6 0.00 0.00 0.00 40 1029.7
20260906011607 68 304 4.3 12.2 0.00 0.00 0.00 40 1029.7
20260906011106 68 314 6.1 9.6 0.00 0.00 0.00 39 1029.7
20260906010601 68 327 5.2 6.1 0.00 0.00 0.00 40 1029.9
20260906010058 68 309 4.3 7.8 0.00 0.00 0.00 39 1029.7
20260906005557 68 334 5.2 7.8 0.00 0.00 0.00 39 1029.9
20260906005057 68 308 4.3 7.0 0.00 0.00 0.00 39 1029.6
20260906004556 68 343 8.7 11.3 0.00 0.00 0.00 38 1029.4
20260906004051 69 325 8.7 10.4 0.00 0.00 0.00 38 1029.5
20260906003545 69 315 7.8 10.4 0.00 0.00 0.00 37 1029.6
20260906003042 69 334 5.2 7.0 0.00 0.00 0.00 37 1029.6
20260906002543 70 325 7.0 9.6 0.00 0.00 0.00 36 1029.6
20260906002037 71 280 3.5 5.2 0.00 0.00 0.00 34 1029.6
20260906001533 72 56 1.7 4.3 0.00 0.00 0.00 33 1029.7
20260906001027 72 33 3.5 3.5 0.00 0.00 0.00 33 1029.7
20260906000523 72 61 4.3 5.2 0.00 0.00 0.00 32 1029.5
20260906000018 73 51 2.6 3.5 0.00 0.00 0.00 32 1029.5
20260905235517 72 257 1.7 4.3 0.00 0.00 0.00 32 1029.7
20260905235013 73 49 2.6 4.3 0.00 0.00 0.00 32 1029.5
20260905234509 73 72 1.7 5.2 0.00 0.00 0.00 31 1029.5
20260905234008 74 131 3.5 5.2 0.00 0.00 0.00 31 1029.4
20260905233503 75 80 4.3 8.7 0.00 0.00 0.00 30 1029.4
20260905233003 77 170 6.1 9.6 0.00 0.00 0.00 29 1029.1
20260905232459 77 127 5.2 5.2 0.00 0.00 0.00 29 1029.2
20260905231954 76 143 5.2 5.2 0.00 0.00 0.00 29 1029.4
20260905231449 76 96 2.6 4.3 0.00 0.00 0.00 30 1029.0
20260905230946 75 324 3.5 6.1 0.00 0.00 0.00 30 1029.2
20260905230444 75 14 3.5 6.1 0.00 0.00 0.00 30 1029.1
20260905225943 75 84 1.7 3.5 0.00 0.00 0.00 30 1029.2